Date String (YYYY-MM-DD hh:mm:ss) UTC,Instrument flags,Ambient pressure (hPa),Sample flow (lpm),Bypass flow (lpm),Sample temperature (°C),Ambient temperature (°C),ASC tube jacket temperature (°C),LED temperature (°C),Box temperature (°C),Sample RH (%),Span deviation,Mass concentration (μg/m³),Mass concentration (μg/m³),Mass concentration (μg/m³)
DateTimeUTC,F1_M11,P_M11,Q1_M11,Q2_M11,T1_M11,T2_M11,T3_M11,T4_M11,T5_M11,U1_M11,ZSPAN_M11,X0_M11,X2_M11,X1_M11
2023-01-30 23:00:00,,0824.9,5.01,0.00,22.9,22.9,00.0,31.5,24.9,04.5,0001.6,0011.18,0006.86,0006.27
2023-01-30 23:01:00,,0824.9,4.98,0.00,22.9,22.9,00.0,31.6,24.9,04.5,0001.8,0011.32,0006.91,0006.28
2023-01-30 23:02:00,,0824.9,5.00,0.00,23.0,22.5,00.0,31.6,24.9,04.5,0002.4,0011.30,0006.91,0006.28
2023-01-30 23:03:00,,0824.9,5.00,0.00,22.9,22.2,00.0,31.7,24.8,04.5,0002.5,0011.24,0006.87,0006.25
2023-01-30 23:04:00,,0824.9,4.99,0.00,22.9,21.9,00.0,31.7,24.7,04.5,0002.3,0011.18,0006.82,0006.22
2023-01-30 23:05:00,,0824.9,5.01,0.00,22.9,21.7,00.0,31.7,24.6,04.5,0002.4,0011.15,0006.78,0006.18
2023-01-30 23:06:00,,0824.9,5.01,0.00,22.9,21.5,00.0,31.7,24.6,04.5,0002.8,0010.92,0006.78,0006.17
2023-01-30 23:07:00,,0824.9,5.01,0.00,22.9,21.4,00.0,31.7,24.6,04.5,0002.5,0010.43,0006.80,0006.17
2023-01-30 23:08:00,,0824.9,5.02,0.00,22.8,21.3,00.0,31.7,24.5,04.6,0002.0,0010.66,0006.79,0006.16
2023-01-30 23:09:00,,0824.9,5.01,0.00,22.8,21.3,00.0,31.7,24.5,04.6,0001.6,0010.63,0006.79,0006.16
2023-01-30 23:10:00,,0825.0,4.99,0.00,22.8,21.1,00.0,31.7,24.5,04.6,0001.6,0010.71,0006.83,0006.16
2023-01-30 23:11:00,,0825.0,5.00,0.00,22.7,21.0,00.0,31.7,24.4,04.6,0001.3,0010.58,0006.81,0006.14
2023-01-30 23:12:00,,0825.0,5.00,0.00,22.7,21.0,00.0,31.7,24.3,04.6,0000.9,0010.52,0006.75,0006.11
2023-01-30 23:13:00,,0825.0,5.00,0.00,22.7,20.9,00.0,31.6,24.3,04.6,0000.7,0010.54,0006.70,0006.08
2023-01-30 23:14:00,,0825.1,5.02,0.00,22.7,21.2,00.0,31.6,24.4,04.6,0000.5,0010.57,0006.73,0006.09
2023-01-30 23:15:00,,0825.2,5.02,0.00,22.8,22.1,00.0,31.6,24.7,04.6,0000.8,0010.52,0006.74,0006.11
2023-01-30 23:16:00,,0825.2,5.00,0.00,22.9,22.9,00.0,31.6,24.9,04.6,0001.1,0010.61,0006.79,0006.14
2023-01-30 23:17:00,,0825.3,4.99,0.00,22.9,22.8,00.0,31.6,24.9,04.5,0001.1,0010.47,0006.77,0006.13
2023-01-30 23:18:00,,0825.3,5.01,0.00,22.9,22.4,00.0,31.7,24.8,04.5,0000.9,0010.54,0006.82,0006.15
2023-01-30 23:19:00,,0825.3,5.03,0.00,22.9,22.0,00.0,31.7,24.7,04.5,0001.0,0010.33,0006.84,0006.16
2023-01-30 23:20:00,,0825.3,4.99,0.00,22.9,21.8,00.0,31.7,24.7,04.5,0001.1,0010.28,0006.83,0006.16
2023-01-30 23:21:00,,0825.2,5.01,0.00,22.9,21.6,00.0,31.7,24.6,04.5,0001.4,0010.54,0006.80,0006.15
2023-01-30 23:22:00,,0825.2,4.99,0.00,22.9,21.4,00.0,31.7,24.5,04.5,0001.5,0010.67,0006.80,0006.15
2023-01-30 23:23:00,,0825.3,4.99,0.00,22.8,21.3,00.0,31.7,24.5,04.5,0001.7,0010.79,0006.85,0006.17
2023-01-30 23:24:00,,0825.3,4.99,0.00,22.8,21.2,00.0,31.7,24.5,04.5,0001.7,0010.75,0006.89,0006.21
2023-01-30 23:25:00,,0825.3,5.00,0.00,22.8,21.2,00.0,31.7,24.4,04.5,0002.2,0011.17,0006.93,0006.22
2023-01-30 23:26:00,,0825.2,5.00,0.00,22.8,21.1,00.0,31.7,24.4,04.5,0002.3,0011.15,0006.90,0006.21
2023-01-30 23:27:00,,0825.2,5.00,0.00,22.7,21.1,00.0,31.7,24.4,04.5,0002.1,0011.10,0006.87,0006.20
2023-01-30 23:28:00,,0825.3,5.02,0.00,22.7,21.0,00.0,31.6,24.4,04.5,0002.1,0011.17,0006.90,0006.21
2023-01-30 23:29:00,,0825.3,4.99,0.00,22.7,21.0,00.0,31.6,24.3,04.5,0002.1,0011.02,0006.85,0006.20
2023-01-30 23:30:00,,0825.3,5.01,0.00,22.7,21.0,00.0,31.6,24.3,04.5,0002.6,0010.89,0006.78,0006.17
2023-01-30 23:31:00,,0825.3,5.00,0.00,22.7,21.2,00.0,31.6,24.4,04.5,0002.6,0010.90,0006.80,0006.17
2023-01-30 23:32:00,,0825.4,5.01,0.00,22.8,22.0,00.0,31.6,24.6,04.5,0002.3,0010.61,0006.83,0006.17
2023-01-30 23:33:00,,0825.4,4.99,0.00,22.9,22.8,00.0,31.6,24.9,04.5,0001.6,0010.53,0006.84,0006.18
2023-01-30 23:34:00,,0825.4,5.00,0.00,22.9,22.8,00.0,31.6,24.9,04.5,0001.4,0010.50,0006.84,0006.18
2023-01-30 23:35:00,,0825.4,5.00,0.00,22.9,22.5,00.0,31.6,24.8,04.4,0001.3,0010.49,0006.83,0006.17
2023-01-30 23:36:00,,0825.4,4.98,0.00,22.9,22.1,00.0,31.7,24.8,04.4,0001.0,0010.29,0006.87,0006.21
2023-01-30 23:37:00,,0825.4,4.99,0.00,22.9,21.9,00.0,31.7,24.7,04.4,0001.1,0010.37,0006.91,0006.24
2023-01-30 23:38:00,,0825.4,5.00,0.00,22.9,21.7,00.0,31.7,24.6,04.4,0001.1,0010.42,0006.95,0006.27
2023-01-30 23:39:00,,0825.3,5.01,0.00,22.9,21.5,00.0,31.7,24.6,04.4,0001.4,0010.46,0006.99,0006.29
2023-01-30 23:40:00,,0825.4,5.00,0.00,22.8,21.4,00.0,31.7,24.6,04.4,0001.5,0010.55,0007.03,0006.33
2023-01-30 23:41:00,,0825.3,5.03,0.00,22.8,21.3,00.0,31.7,24.5,04.4,0001.2,0011.17,0007.09,0006.38
2023-01-30 23:42:00,,0825.4,5.00,0.00,22.8,21.2,00.0,31.7,24.5,04.4,0001.4,0011.37,0007.10,0006.42
2023-01-30 23:43:00,,0825.3,4.99,0.00,22.8,21.2,00.0,31.7,24.5,04.4,0001.7,0011.38,0007.13,0006.46
2023-01-30 23:44:00,,0825.3,5.00,0.00,22.8,21.1,00.0,31.7,24.4,04.4,0002.1,0011.55,0007.20,0006.50
2023-01-30 23:45:00,,0825.3,5.00,0.00,22.7,21.0,00.0,31.6,24.4,04.4,0002.0,0011.68,0007.25,0006.52
2023-01-30 23:46:00,,0825.4,5.00,0.00,22.7,21.0,00.0,31.6,24.4,04.4,0001.7,0011.65,0007.25,0006.53
2023-01-30 23:47:00,,0825.4,4.99,0.00,22.7,21.0,00.0,31.6,24.3,04.4,0001.5,0011.91,0007.20,0006.51
2023-01-30 23:48:00,,0825.4,5.00,0.00,22.7,21.0,00.0,31.6,24.3,04.4,0001.4,0012.31,0007.21,0006.51
2023-01-30 23:49:00,,0825.4,5.00,0.00,22.7,21.5,00.0,31.6,24.5,04.4,0001.3,0012.31,0007.21,0006.52
2023-01-30 23:50:00,,0825.5,5.00,0.00,22.8,22.3,00.0,31.5,24.7,04.4,0000.6,0012.38,0007.24,0006.53
2023-01-30 23:51:00,,0825.5,5.00,0.00,22.9,22.9,00.0,31.6,24.9,04.4,0000.8,0012.76,0007.21,0006.52
2023-01-30 23:52:00,,0825.5,5.00,0.00,22.9,22.6,00.0,31.6,24.9,04.4,0001.3,0012.53,0007.18,0006.51
2023-01-30 23:53:00,,0825.5,5.00,0.00,22.9,22.3,00.0,31.6,24.8,04.4,0001.4,0012.36,0007.19,0006.51
2023-01-30 23:54:00,,0825.5,5.02,0.00,22.9,21.9,00.0,31.7,24.7,04.4,0001.7,0012.36,0007.18,0006.51
2023-01-30 23:55:00,,0825.5,5.01,0.00,22.9,21.7,00.0,31.7,24.6,04.4,0002.5,0012.13,0007.10,0006.49
2023-01-30 23:56:00,,0825.6,4.99,0.00,22.8,21.5,00.0,31.7,24.6,04.4,0002.8,0012.02,0007.09,0006.50
2023-01-30 23:57:00,,0825.6,4.99,0.00,22.8,21.4,00.0,31.7,24.5,04.4,0003.2,0012.15,0007.12,0006.51
2023-01-30 23:58:00,,0825.6,5.02,0.00,22.8,21.3,00.0,31.7,24.5,04.4,0003.6,0012.51,0007.14,0006.52
2023-01-30 23:59:00,,0825.6,4.99,0.00,22.8,21.2,00.0,31.7,24.4,04.4,0003.6,0012.34,0007.14,0006.53
